Terminal Aerodrome Forecast
Issued by NWS

Home | Current Version | Previous Version | Text Only | Print | Product List | Glossary On
Versions: 1 2 3 4 5 6 7 8 9 10 11 12 13 14 15 16 17 18 19 20 21
000
FTUS46 KSGX 051734
TAFSNA
TAF
KSNA 051734Z 0518/0618 VRB05KT P6SM SCT025 OVC040
     FM051900 21011G18KT P6SM FEW025 BKN035
     FM060300 22009KT P6SM VCSH BKN025 OVC035
     FM060600 VRB05KT P6SM -SHRA BKN025 OVC040
     FM061730 22010KT P6SM BKN030 OVC040=

USA.gov is the U.S. government's official web portal to all federal, state and local government web resources and services.